Miscellaneous Local Product
Issued by NWS Hastings, NE

Home | Current Version | Previous Version | Graphics & Text | Print | Product List | Glossary On
Versions: 1 2 3 4 5 6 7 8 9 10 11 12 13 14 15 16 17 18 19 20 21 22 23 24 25 26 27 28 29 30 31 32 33 34 35 36 37 38 39 40 41 42 43 44 45 46 47 48 49 50
000
AXUS43 KGID 022202
MISGRI

GID CWA HOURLY WEATHER ROUNDUP
NATIONAL WEATHER SERVICE HASTINGS NE
500 PM CDT TUE JUN 02 2015

NOTE: "FAIR" INDICATES FEW OR NO CLOUDS BELOW 12,000 FEET WITH NO
SIGNIFICANT WEATHER AND/OR OBSTRUCTIONS TO VISIBILITY.

...SOUTH CENTRAL NEBRASKA...

CITY           SKY/WX    TMP DP  RH WIND       PRES   REMARKS
GRAND ISLAND   MOSUNNY   82  63  52 S14G25    29.85F
HASTINGS       MOSUNNY   82  65  56 S15       29.84F
KEARNEY        MOSUNNY   82  64  54 S15       29.84F
ORD            CLOUDY    72  61  68 S14       29.84F
YORK           MOSUNNY   79  66  65 SE13      29.87F
AURORA         MOSUNNY   83  62  50 S17G23    29.85F
LEXINGTON      MOSUNNY   80  68  67 S13       29.83F
HOLDREGE       SUNNY     81  64  55 S16G23    29.83F
HEBRON         SUNNY     84  63  48 S14G23    29.87F

...NEBRASKA PANHANDLE...

CITY           SKY/WX    TMP DP  RH WIND       PRES   REMARKS
CHADRON        MOSUNNY   77  61  57 E10       29.76F
ALLIANCE       MOSUNNY   82  61  48 SE8       29.80F
SCOTTSBLUFF    PTSUNNY   87  51  28 VRB3      29.79F
SIDNEY         MOSUNNY   83  59  44 SE3       29.85F

...WESTERN AND NORTH CENTRAL NEBRASKA...

CITY           SKY/WX    TMP DP  RH WIND       PRES   REMARKS
VALENTINE      MOSUNNY   88  58  36 S10       29.77
AINSWORTH      MOSUNNY   85  63  47 S17       29.80F
ONEILL         MOSUNNY   78  64  62 S16G26    29.83F
BROKEN BOW     PTSUNNY   75  65  70 SE18      29.84F
IMPERIAL       SUNNY     84  65  52 SE10      29.80F
NORTH PLATTE   PTSUNNY   83  67  58 SE9       29.80F
MCCOOK         MOSUNNY   86  64  47 S15       29.79F

...EASTERN NEBRASKA...

CITY           SKY/WX    TMP DP  RH WIND       PRES   REMARKS
NORFOLK        SUNNY     78  63  59 S18G29    29.86F
SO SIOUX CITY  PTSUNNY   79  61  53 S21       29.87F
TEKAMAH        PTSUNNY   81  61  50 SE21      29.89F
COLUMBUS       MOSUNNY   77  61  57 S15G24    29.88F
ALBION         MOSUNNY   75  62  62 S15G22    29.86F
OMAHA EPPLEY   CLOUDY    74  60  61 SE22G29   29.92F
OFFUTT AFB     PTSUNNY   70  63  79 E17       29.92F
MILLARD        PTSUNNY   73  62  68 SE13G22   29.92F
LINCOLN        PTSUNNY   78  64  61 SE15      29.90F
NEBRASKA CITY  CLOUDY    71  56  59 SE15      29.94F
BEATRICE       MOSUNNY   78  65  63 SE14      29.90F
FALLS CITY     CLOUDY    72  60  66 SE16      29.94F

...NORTHERN KANSAS...

CITY           SKY/WX    TMP DP  RH WIND       PRES   REMARKS
GOODLAND       SUNNY     87  57  35 SE8       29.82F
HILL CITY      SUNNY     87  64  46 S14G23    29.80F
NORTON         CLEAR     88  59  37 SE15G21   29.80F
PHILLIPSBURG   SUNNY     90  63  40 S15       29.81F HX  90
SMITH CENTER   SUNNY     82  66  57 SE17G25   29.82F
HAYS           MOSUNNY   88  64  45 S20G26    29.81F
RUSSELL        SUNNY     87  65  47 S23G29    29.80F
CONCORDIA      MOSUNNY   84  66  54 SE20      29.85F
SALINA         MOSUNNY   88  66  48 S20G26    29.84F HX  90
TOPEKA         MOSUNNY   78  65  63 E15       29.94F



USA.gov is the U.S. government's official web portal to all federal, state and local government web resources and services.